This demonstration page uses our WeatherBlox Daily Observations layout. Learn more.

36.17497, -115.13722

Hourly Observations for July 31, 2016

Temp ( °F °C ) Dew Point ( °F °C ) Humidity (%) Winds ( mph kmh ) Pressure ( in mb ) Visibility ( mi km ) Precip ( " mm )
12:53 am 00:53 Clear 90 32.2 61 16.1 38 38 E 24 39 29.68 1005 10 16.09344 0 0
1:53 am 01:53 Clear 88 31.1 60 15.6 39 39 E 13 20 29.74 1007 10 16.09344 0 0
2:53 am 02:53 Clear 87 30.6 59 15 39 39 E 10 17 29.74 1007 10 16.09344 0 0
3:53 am 03:53 Clear 87 30.6 60 15.6 40 40 ENE 5 7 29.74 1007 10 16.09344 0 0
4:53 am 04:53 Clear 87 30.6 59 15 39 39 Calm 29.74 1007 10 16.09344 0 0
5:53 am 05:53 Sunny 85 29.4 59 15 42 42 E 3 6 29.74 1007 10 16.09344 0 0
6:53 am 06:53 Sunny 85 29.4 61 16.1 45 45 Calm 29.77 1008 10 16.09344 0 0
7:53 am 07:53 Sunny 88 31.1 63 17.2 43 43 E 3 6 29.77 1008 10 16.09344 0 0
8:53 am 08:53 Sunny 90 32.2 62 16.7 39 39 ESE 12 19 29.74 1007 10 16.09344 0 0
9:53 am 09:53 Sunny 91 32.8 62 16.7 38 38 ESE 8 13 29.74 1007 10 16.09344 0 0
10:53 am 10:53 Sunny 94 34.4 62 16.7 35 35 SSE 8 13 29.74 1007 10 16.09344 0 0
11:53 am 11:53 Sunny 98 36.7 61 16.1 29 29 E 10 17 29.68 1005 10 16.09344 0 0
12:53 pm 12:53 Sunny 99 37.2 62 16.7 30 30 ESE 12 19 29.65 1004 10 16.09344 0 0
1:53 pm 13:53 Sunny 101 38.3 62 16.7 28 28 ENE 9 15 29.62 1003 10 16.09344 0 0
2:53 pm 14:53 Sunny 102 38.9 62 16.7 27 27 E 14 22 29.56 1001 10 16.09344 0 0
3:53 pm 15:53 Sunny 99 37.2 58 14.4 26 26 S 14 22 29.56 1001 10 16.09344 0 0
4:53 pm 16:53 Partly Cloudy with Light Rain 98 36.7 59 15 27 27 S 13 20 29.56 1001 10 16.09344 0.001 0.001
5:53 pm 17:53 Sunny 102 38.9 56 13.3 22 22 SSW 12 19 29.5 999 10 16.09344 0.001 0.001
6:53 pm 18:53 Sunny 101 38.3 52 11.1 19 19 S 15 24 29.5 999 10 16.09344 0 0
7:53 pm 19:53 Clear 99 37.2 54 12.2 22 22 S 9 15 29.53 1000 10 16.09344 0 0
8:53 pm 20:53 Clear 97 36.1 56 13.3 25 25 SSW 12 19 29.59 1002 10 16.09344 0 0
9:53 pm 21:53 Clear 93 33.9 54 12.2 27 27 E 17 28 29.65 1004 10 16.09344 0 0
10:53 pm 22:53 Clear 90 32.2 54 12.2 29 29 ENE 23 37 29.71 1006 10 16.09344 0 0
11:53 pm 23:53 Clear 79 26.1 55 12.8 44 44 ENE 13 20 29.77 1008 10 16.09344 0 0

Powered by AerisWeather